TimeCDT,TemperatureF,Dew PointF,Humidity,Sea Level PressureIn,VisibilityMPH,Wind Direction,Wind SpeedMPH,Gust SpeedMPH,PrecipitationIn,Events,Conditions,WindDirDegrees,DateUTC
12:53 AM,66.9,64.9,93,29.77,9.0,SE,9.2,-,N/A,,Overcast,130,2012-10-17 05:53:00
1:53 AM,66.9,64.9,93,29.77,9.0,East,4.6,-,N/A,,Overcast,100,2012-10-17 06:53:00
2:50 AM,66.2,66.2,100,29.79,1.8,ESE,4.6,-,N/A,,Overcast,120,2012-10-17 07:50:00
2:53 AM,66.0,66.0,100,29.77,1.8,ESE,4.6,-,N/A,,Overcast,110,2012-10-17 07:53:00
3:00 AM,66.2,66.2,100,29.79,2.0,ESE,4.6,-,N/A,,Overcast,120,2012-10-17 08:00:00
3:15 AM,66.2,66.2,100,29.79,1.8,SE,3.5,-,N/A,,Overcast,130,2012-10-17 08:15:00
3:22 AM,66.2,66.2,100,29.79,1.8,ESE,3.5,-,N/A,,Overcast,120,2012-10-17 08:22:00
3:48 AM,66.2,66.2,100,29.78,0.8,ESE,5.8,-,N/A,,Overcast,110,2012-10-17 08:48:00
3:53 AM,64.9,64.9,100,29.76,0.8,ESE,4.6,-,N/A,,Overcast,110,2012-10-17 08:53:00
4:02 AM,64.4,64.4,100,29.78,0.8,Calm,Calm,-,N/A,,Overcast,0,2012-10-17 09:02:00
4:53 AM,64.9,64.9,100,29.75,0.8,Calm,Calm,-,N/A,,Overcast,0,2012-10-17 09:53:00
5:53 AM,64.9,64.9,100,29.74,0.2,Calm,Calm,-,N/A,Fog,Fog,0,2012-10-17 10:53:00
6:53 AM,66.0,66.0,100,29.74,0.2,Calm,Calm,-,N/A,Fog,Fog,0,2012-10-17 11:53:00
7:53 AM,66.0,66.0,100,29.75,0.2,Calm,Calm,-,N/A,Fog,Fog,0,2012-10-17 12:53:00
8:53 AM,66.9,66.9,100,29.75,0.2,Calm,Calm,-,N/A,Fog,Fog,0,2012-10-17 13:53:00
9:18 AM,68.0,66.2,94,29.77,1.0,SSW,4.6,-,N/A,,Overcast,210,2012-10-17 14:18:00
9:53 AM,68.0,68.0,100,29.75,2.5,SW,4.6,-,N/A,,Overcast,230,2012-10-17 14:53:00
10:09 AM,69.8,68.0,94,29.77,3.0,SW,5.8,-,N/A,,Overcast,220,2012-10-17 15:09:00
10:53 AM,71.1,69.1,93,29.75,4.0,SSW,6.9,-,N/A,,Overcast,200,2012-10-17 15:53:00
11:49 AM,73.4,69.8,88,29.76,8.0,SW,8.1,-,N/A,,Overcast,220,2012-10-17 16:49:00
11:53 AM,75.0,69.1,82,29.74,9.0,WSW,6.9,-,N/A,,Overcast,250,2012-10-17 16:53:00
12:43 PM,78.8,69.8,74,29.74,10.0,Variable,5.8,-,N/A,,Scattered Clouds,0,2012-10-17 17:43:00
12:53 PM,79.0,69.1,72,29.71,10.0,SW,9.2,-,N/A,,Partly Cloudy,220,2012-10-17 17:53:00
1:53 PM,82.9,69.1,63,29.66,10.0,SW,6.9,-,N/A,,Clear,220,2012-10-17 18:53:00
2:53 PM,88.0,70.0,55,29.62,10.0,SSW,6.9,-,N/A,,Clear,210,2012-10-17 19:53:00
3:53 PM,90.0,66.0,45,29.60,10.0,WSW,10.4,-,N/A,,Clear,250,2012-10-17 20:53:00
4:53 PM,90.0,64.9,43,29.60,10.0,SW,10.4,-,N/A,,Clear,230,2012-10-17 21:53:00
5:53 PM,89.1,64.0,43,29.60,10.0,SW,5.8,-,N/A,,Clear,230,2012-10-17 22:53:00
6:53 PM,84.9,64.9,51,29.62,10.0,South,3.5,-,N/A,,Clear,190,2012-10-17 23:53:00
7:53 PM,75.9,68.0,76,29.64,10.0,South,4.6,-,N/A,,Clear,180,2012-10-18 00:53:00
8:53 PM,75.0,66.9,76,29.67,8.0,Calm,Calm,-,N/A,,Clear,0,2012-10-18 01:53:00
9:53 PM,73.9,66.9,79,29.68,10.0,Calm,Calm,-,N/A,,Clear,0,2012-10-18 02:53:00
10:53 PM,71.1,66.9,87,29.70,10.0,Calm,Calm,-,N/A,,Clear,0,2012-10-18 03:53:00
11:53 PM,73.9,66.0,76,29.71,10.0,Calm,Calm,-,N/A,,Clear,0,2012-10-18 04:53:00